Regional Weather Roundup
Issued by NWS

Home | Current Version | Previous Version | Graphics & Text | Print | Product List | Glossary On
Versions: 1 2 3 4 5 6 7 8 9 10 11 12 13 14 15 16 17 18 19 20 21 22 23 24 25 26 27 28 29 30 31 32 33 34 35 36 37 38 39 40 41 42 43 44 45 46 47 48 49 50
000
ASUS45 KCYS 010910
RWRWY

WYOMING REGIONAL WEATHER ROUNDUP
NATIONAL WEATHER SERVICE CHEYENNE WY
200 AM MST SUN FEB 01 2015

NOTE:  "FAIR" INDICATES FEW OR NO CLOUDS BELOW 12,000 FEET
WITH NO SIGNIFICANT WEATHER AND/OR OBSTRUCTIONS TO VISIBILITY.

WYZ001-011000-
YELLOWSTONE NATIONAL PARK

CITY           SKY/WX    TMP DP  RH WIND       PRES   REMARKS
LK YELLOWSTONE   N/A      3  -1  83 CALM      30.11R
W YELLOWSTONE  NOT AVBL

$$
WYZ002>013-054>058-071-098>099-011000-
NORTHERN WYOMING

CITY           SKY/WX    TMP DP  RH WIND       PRES   REMARKS
JACKSON        FAIR       3   3 100 N8        30.13S WCI -10
CODY           CLOUDY    12  12 100 N12       30.16S WCI  -2
GREYBULL       FAIR      17   9  70 NW12      30.22R WCI   4
WORLAND        CLOUDY    18  11  74 E9        30.21R WCI   7
SHERIDAN       CLOUDY    12   5  73 NW14      30.27R WCI  -3
BUFFALO        FLURRIES   9   5  84 N25G37    30.16R WCI -12
GILLETTE       CLOUDY     9   4  80 N18       30.18R WCI -10
HULETT           N/A    N/A N/A N/A MISG        N/A
NEWCASTLE      CLOUDY    16   9  73 NW16      30.13R WCI   0

$$
WYZ014>020-022>026-101>103-011000-
CENTRAL WYOMING

CITY           SKY/WX    TMP DP  RH WIND       PRES   REMARKS
BIG PINEY      FAIR      16   7  67 VRB6      30.07S WCI   7
PINEDALE       FAIR       9   1  72 NW12      30.07R WCI  -6
DUBOIS         FAIR      19  10  68 NW9       30.03S WCI   9
LANDER         CLOUDY    23  19  85 NE6       30.08S WCI  16
RIVERTON       CLOUDY    22  15  75 NE5       30.10S WCI  16
CASPER         CLOUDY    16  10  77 NE7       30.12S WCI   6
DOUGLAS        CLOUDY    18  11  74 NW14      30.13R WCI   4

$$
WYZ021-027>030-104>119-011000-
SOUTHERN WYOMING

CITY           SKY/WX    TMP DP  RH WIND       PRES   REMARKS
EVANSTON       FAIR      23  18  81 SW10      30.12S WCI  12
FORT BRIDGER   FAIR      27  15  61 W9        30.14R WCI  17
ROCK SPRINGS   FAIR      19  13  77 W9        30.07S WCI   8
DIXON          PTSUNNY   23  20  89 NE3       30.10S
RAWLINS        FAIR      20  15  81 W10       30.05S WCI   9
SARATOGA       PTSUNNY   19  18  93 W3        30.04S
LARAMIE        FLURRIES  19  16  88 N13       29.98R WCI   6
CHEYENNE       LGT SNOW  18  13  80 N20G31    29.99R WCI   2
TORRINGTON     CLOUDY    22  11  62 NW24G33   30.10R WCI   5
PINE BLUFFS    FLURRIES  23  19  86 N17G30    30.02R WCI   9

$$



USA.gov is the U.S. government's official web portal to all federal, state and local government web resources and services.